Location: Cuiry
(49.3858°N, 3.7708°E)
Time: 01:50:25
(UTC+00:00)

UNK - Pass Details

Date: 12 April 2026
Orbit: 653 x 673 km, 98.4° (Epoch: 19 May)

Event Time Altitude Azimuth Distance (km) Brightness Sun altitude
Rises 03:14:44 0° 134° (SE) 3,014 7.2 -16.3°
Reaches altitude 10° 03:17:10 10° 123° (ESE) 2,104 6.6 -15.9°
Maximum altitude 03:21:07 29° 64° (ENE) 1,227 5.9 -15.4°
Drops below altitude 10° 03:25:05 10° 5° (N) 2,112 6.8 -14.9°
Sets 03:27:32 0° 354° (N) 3,028 7.5 -14.5°
